Location: ?????????
(41.2286°N, 23.0068°E)
Time: 07:36:21
(UTC+00:00)

Cosmos 2219 Rocket - Pass Details

Date: 08 November 2025
Orbit: 825 x 847 km, 71.0° (Epoch: 05 December)

Event Time Altitude Azimuth Distance (km) Brightness Sun altitude
Exits shadow 02:55:12 29° 343° (NNW) 1,494 3.3 -25.1°
Drops below altitude 10° 02:58:30 10° 10° (N) 2,473 4.7 -24.5°
Sets 03:01:08 0° 18° (NNE) 3,414 5.6 -24.0°
